Delta Virtual Airport Information Service

Dubai International Airport

ICAO: OMDB Country: United Arab Emirates
Latitude: 25.2528 Longitude: 55.3644
Latest Arrival : SVA552 (2) (OERK-OMDB) Latest Departure : UAE65 (OMDB-EGSS)


WX CaptureLIVE
Data provided by noaa.gov | Fetched at 04:22:25

METAR : OMDB 031000Z 28013KT 260V320 CAVOK 29/12 Q1016 NOSIG

TAF : OMDB 030500Z 0306/0412 20007KT CAVOK BECMG 0306/0308 28012KT BECMG 0318/0320 22005KT BECMG 0405/0407 28013KT


Runway Data for OMDB
Data provided by openaviationdata.com

Runway ID Mag Var Hdg Length Elevation Surface ILS Freq ILS Id ILS Slope
12L 1 119° 13143 ft 34 ft Asphalt 110.1 IDBL 3
12R 1 119° 14606 ft 34 ft Asphalt 109.5 IDBE 3
30L 1 299° 14606 ft 34 ft Asphalt 111.3 IDBW 3
30R 1 299° 13143 ft 34 ft Asphalt 110.9 IDBR 3

Dubai International Airport, United Arab Emirates
Use only for reference purposes



Not for navigational purposes.